www.pogodaiklimat.ru

Погода и климат >> Архив погоды >> Австралия >> Западная Австралия >> Остров Адель


ПОГОДА на Острове Адель

  • Прогноз погоды на Острове Адель
  • Монитор погоды на Острове Адель

АРХИВ ПОГОДЫ на Острове Адель

Время (UTC), дата Ветер
(напр.,м/с)
 
Видим.   Явления Облачность Т
(С)
Тd
(С)
f
(%)
Тe
(С)
Тes
(С)
Комфортность P
(гПа)
Po
(гПа)
Тmin
(С)
Tmax
(С)
R
(мм)
R24
(мм)
S
(см)
12 14.08 С 3 н/о н/о +24.7 +21 +21 комфорт 1016.9 1016.3
15 14.08 С 3 н/о н/о +25.1 +21 +21 комфорт 1017.0 1016.4
18 14.08 штиль 0 н/о н/о +24.2 +20 +20 1016.7 1016.1
21 14.08 С 5 н/о н/о +24.7 +21 +21 комфорт 1016.8 1016.2
00 15.08 СВ 1 н/о н/о +26.0 +22 +22 комфорт 1019.1 1018.5
03 15.08 ЮВ 3 н/о н/о +26.6 +22 +22 комфорт 1018.7 1018.1
06 15.08 Ю 4 н/о н/о +24.8 +21 +21 комфорт 1016.3 1015.7
09 15.08 ЮЗ 3 н/о н/о +24.4 +20 +20 1016.0 1015.4
12 15.08 З 3 н/о н/о +24.6 +21 +21 комфорт 1017.3 1016.7
15 15.08 Ю 5 н/о н/о +24.2 +20 +20 1017.0 1016.4
18 15.08 Ю 5 н/о н/о +23.9 +20 +20 1015.8 1015.2
21 15.08 ЮВ 5 н/о н/о +24.1 +20 +20 1016.1 1015.5
00 16.08 В 5 н/о н/о +25.2 +21 +21 комфорт 1017.8 1017.2
03 16.08 ЮВ 5 н/о н/о +26.0 +22 +22 комфорт 1017.5 1016.9
06 16.08 Ю 4 н/о н/о +26.1 +22 +22 комфорт 1015.6 1015.0
09 16.08 СЗ 3 н/о н/о +25.2 +21 +21 комфорт 1015.2 1014.6
12 16.08 ЮЗ 4 н/о н/о +25.0 +21 +21 комфорт 1016.4 1015.8
15 16.08 Ю 6 н/о н/о +24.2 +20 +20 1016.5 1015.9
18 16.08 Ю 6 н/о н/о +24.4 +20 +20 1015.3 1014.7
21 16.08 Ю 5 н/о н/о +24.0 +20 +20 1015.3 1014.7
00 17.08 Ю 6 н/о н/о +25.1 +21 +21 комфорт 1017.1 1016.5
03 17.08 ЮВ 6 н/о н/о +25.7 +21 +21 комфорт 1017.3 1016.7
06 17.08 ЮЗ 6 н/о н/о +25.6 +21 +21 комфорт 1015.2 1014.6
09 17.08 ЮЗ 3 н/о н/о +25.8 +21 +21 комфорт 1015.1 1014.5
12 17.08 ЮЗ 5 н/о н/о +25.8 +21 +21 комфорт 1016.7 1016.1
15 17.08 ЮЗ 7 н/о н/о +25.3 +21 +21 комфорт 1016.5 1015.9
18 17.08 Ю 9 н/о н/о +24.9 +21 +21 комфорт 1015.5 1014.9
21 17.08 ЮВ 8 н/о н/о +23.9 +20 +20 1015.1 1014.5
00 18.08 ЮВ 7 н/о н/о +25.2 +21 +21 комфорт 1016.7 1016.1
03 18.08 ЮВ 8 н/о н/о +26.6 +22 +22 комфорт 1016.4 1015.8
06 18.08 Ю 7 н/о н/о +26.7 +22 +22 комфорт 1014.3 1013.7
09 18.08 Ю 7 н/о н/о +26.5 +22 +22 комфорт 1014.0 1013.4
12 18.08 ЮВ 7 н/о н/о +25.8 +21 +21 комфорт 1015.4 1014.8
15 18.08 Ю 7 н/о н/о +25.6 +21 +21 комфорт 1015.8 1015.2
18 19.08 ЮВ 8 н/о н/о +25.2 +21 +21 комфорт 1014.8 1014.2
21 19.08 ЮВ 10 н/о н/о +25.3 +21 +21 комфорт 1015.3 1014.7
00 20.08 В 8 н/о н/о +26.7 +22 +22 комфорт 1018.0 1017.4
03 20.08 В 7 н/о н/о +28.2 +23 +23 комфорт 1017.7 1017.1
06 20.08 В 5 н/о н/о +27.0 +22 +22 комфорт 1015.5 1014.9
09 20.08 В 3 н/о н/о +26.7 +22 +22 комфорт 1015.3 1014.7
12 20.08 ЮЗ 3 н/о н/о +25.6 +21 +21 комфорт 1016.8 1016.2
15 20.08 СЗ 3 н/о н/о +26.2 +22 +22 комфорт 1016.3 1015.7
18 20.08 штиль 0 н/о н/о +24.5 +21 +21 комфорт 1015.3 1014.7
21 20.08 В 4 н/о н/о +25.4 +21 +21 комфорт 1015.9 1015.3
00 21.08 В 8 н/о н/о +26.3 +22 +22 комфорт 1017.7 1017.1
03 21.08 В 8 н/о н/о +26.8 +22 +22 комфорт 1017.2 1016.6
06 21.08 В 4 н/о н/о +26.0 +22 +22 комфорт 1015.1 1014.5

 

Местоположение метеостанции Остров Адель (Западная Австралия, Австралия): широта -15.51 долгота 123.15 высота над уровнем моря 5 м.

В архиве по умолчанию представлена погода на Острове Адель за последнюю неделю. Архивные данные за месяц целиком и за предыдущие месяцы, начиная с января 2011 года, Вы можете получить, выбрав интересующий диапазон дат из раскрывающегося списка и нажав кнопку "Ввод!".


*Определитесь, кто Вы:
робот инопланетянин человек

Внимание! Время в таблицах - всемирное. Для получения местного времени необходимо прибавить поправку, которая равна 8 ч.

Смотрите также архив погоды в соседних городах и на ближайших метеорологических станциях:

Погода на Острове Брауз (Западная Австралия, Австралия) (162 км)
Погода в Дерби (Северная территория, Австралия) (213 км)
Погода на Базе ВВС Curtin (Западная Австралия, Австралия) (241 км)
Погода в Робак Запад (Западная Австралия, Австралия) (280 км)
Погода в Бруме (Западная Австралия, Австралия) (289 км)
Погода на Острове Троутон (Западная Австралия, Австралия) (378 км)
Погода в Трускотте (Западная Австралия, Австралия) (382 км)
Погода в Фицрой-Кроссинге (Западная Австралия, Австралия) (392 км)
Погода в Калумбуру (Западная Австралия, Австралия) (400 км)
Погода в Роули Шоалс (Западная Австралия, Австралия) (501 км)

Пояснения к столбцам:

Ветер - указаны скорость ветра в м/с - средняя за 10 мин, порывы в срок и между сроками (в фигурных скобках) и направление, откуда дует ветер: С - северный, СВ - северо-восточный, В - восточный, ЮВ - юго-восточный, Ю - южный, ЮЗ - юго-западный, З - западный, СЗ - северо-западный.
Видимость - горизонтальная дальность видимости в метрах или километрах. При видимости от 1 до 10 км при отсутствии осадков обычно наблюдается дымка, при ухудшении видимости до 1 км и менее - туман. В сухую погоду видимость может ухудшаться дымом, пылью или мглою.
Явления - указаны атмосферные явления, наблюдавшиеся в срок или в последний час перед сроком; фигурными скобками обозначены явления, наблюдавшиеся между сроками (за 1-3 часа до срока); квадратными скобками обозначены град или гололедные отложения с указанием их диаметра в мм.
Облачность - указаны через наклонную черту общая и нижняя облачность в баллах и высота нижней границы облаков в метрах; квадратными скобками обозначены формы облаков: Ci - перистые, Cs - перисто-слоистые, Cc - перисто-кучевые, Ac - высококучевые, As - высокослоистые, Sc - слоисто-кучевые, Ns - слоисто-дождевые, Cu - кучевые, Cb - кучево-дождевые. Подробнее классификацию облаков см. в Атласе облаков (PDF).
T - Температура воздуха - температура, измеренная на высоте 2 м над землей.
Td - Температура точки росы - температура, при понижении до которой содержащийся в воздухе водяной пар достигнет насыщения.
f - Относительная влажность воздуха - влажноcть воздуха, измеренная на высоте 2 м над землей.
Te - Эффективная температура - температура, которую ощущает одетый по сезону человек в тени. Характеристика душности погоды. При расчете учитывается влияние влажности воздуха и скорости ветра на теплоощущения человека.
Tes - Эффективная температура на солнце - температура, которую ощущает человек, с поправкой на солнечный нагрев. Характеристика знойности погоды. Зависит от высоты солнца над горизонтом, облачности и скорости ветра. Ночью, в пасмурную погоду, а также при ветре 12 м/с и более поправка равна нулю.
P - Атмосферное давление - приведенное к уровню моря атмосферное давление.
Po - Атмосферное давление - измеренное на уровне метеостанции атмосферное давление.
Tmin - Минимальная температура - минимум температуры воздуха на высоте 2 м над землей.
Tmax - Максимальная температура - максимум температуры воздуха на высоте 2 м над землей.
R - Количество осадков - Количество выпавших осадков за период времени, мм. При наведении курсора мыши на число - период времени, за который выпало указанное количество осадков.
R24 - Количество осадков - Количество выпавших осадков за 24 часа, мм.
S - Снежный покров - Высота снежного покрова, см. При наведении курсора мыши на число - состояние снежного покрова и степень покрытия местности в баллах.